Track RESURS P1 now! 10-day predictions RESURS P1 is classified as:
1 39186U 13030A 21061.42152955 .00001305 00000-0 41773-4 0 9992 2 39186 97.1910 126.3404 0014835 255.6780 158.8724 15.34092654430023